Regional Weather Roundup
Issued by NWS

Home | Current Version | Previous Version | Text Only | Print | Product List | Glossary Off
Versions: 1 2 3 4 5 6 7 8 9 10 11 12 13 14 15 16 17 18 19 20 21 22 23 24 25 26 27 28 29 30 31 32 33 34 35 36 37 38 39 40 41 42 43 44 45 46 47 48 49 50

000
ASUS43 KMPX 270510
RWRMN
WEATHER ROUNDUP FOR MINNESOTA
NATIONAL WEATHER SERVICE TWIN CITIES/CHANHASSEN MN
1200 AM CDT TUE JUN 27 2017


NOTE: "FAIR" INDICATES FEW OR NO CLOUDS BELOW 12,000 FEET WITH NO
SIGNIFICANT WEATHER AND/OR OBSTRUCTIONS TO VISIBILITY. N/A MEANS
CURRENT SKY AND/OR WEATHER CONDITIONS ARE NOT AVAILABLE.

MNZ060>063-068>070-270600-
   Twin Cities Metro

CITY           SKY/WX    TMP DP  RH WIND       PRES   REMARKS
TWIN CITIES    CLEAR     63  44  50 CALM      30.11S
ST PAUL        CLEAR     56  48  74 CALM      30.11S
CRYSTAL        PTCLDY    53  44  71 CALM      30.09S
BLAINE         PTCLDY    54  48  82 CALM      30.10S
LAKEVILLE      CLEAR     52  48  87 CALM      30.12R
EDEN PRAIRIE   PTCLDY    60  45  57 CALM      30.10S
SOUTH ST PAUL  CLEAR     56  47  73 CALM      30.11S
LAKE ELMO      FAIR      52  50  93 CALM      30.11F
$$
MNZ001>005-007-008-013>017-022>024-027-028-270600-
   Northwest Minnesota

CITY           SKY/WX    TMP DP  RH WIND       PRES   REMARKS
BEMIDJI        CLEAR     53  45  74 SW3       30.06S
HALLOCK        CLEAR     50  43  76 S5        30.00F
ROSEAU         CLEAR     50  45  81 S5        30.02F
WARROAD        CLEAR     54  48  82 S3        30.02F
THIEF RVR FALL CLEAR     55  45  68 S3        30.04F
CROOKSTON      CLEAR     52  45  76 S5        30.04F
FOSSTON        CLEAR     46  43  87 S6        30.06F
DETROIT LAKES  CLEAR     55  50  82 CALM      30.09S
MOORHEAD       CLEAR     61  37  41 S5        30.07F
PARK RAPIDS    CLEAR     51  44  77 CALM      30.08S
MAHNOMEN       FAIR      54  44  68 S5        30.07S
$$
MNZ006-009>011-018-025>026-270600-
   North Central Minnesota

CITY           SKY/WX    TMP DP  RH WIND       PRES   REMARKS
BAUDETTE       PTCLDY    50  47  89 CALM      30.02F
FLAG ISLAND    HAZE      63  45  51 W9        29.99S VSB 1/2
INTL FALLS     CLEAR     45  43  93 CALM      30.02S
WASKISH        CLEAR     52  48  87 CALM      30.04S
BIG FORK       CLEAR     46  45  93 CALM      30.05S
LONGVILLE      CLEAR     46  46 100 CALM      30.07S
GRAND RAPIDS   CLEAR     56  45  66 SW5       30.08S
CRANE LAKE     CLEAR     46  46 100 CALM      30.04S
ORR            CLEAR     48  45  87 CALM      30.02S
COOK           MOCLDY    48  46  93 CALM      30.04F
WALKER         FAIR      48  43  82 CALM      30.07S
$$
MNZ012-019>021-037-270600-
   Northeast Minnesota

CITY           SKY/WX    TMP DP  RH WIND       PRES   REMARKS
DULUTH         PTCLDY    52  46  80 W6        30.04F
ELY            MOCLDY    50  48  93 CALM      30.03S
HIBBING        CLEAR     44  43  96 CALM      30.04F
EVELETH        CLEAR     47  44  89 CALM      30.05S FOG
DULUTH HARBOR  CLEAR     61  52  72 SW8       30.04S
TWO HARBORS    CLEAR     52  46  82 NW3       30.02S
SILVER BAY     MOCLDY    50  46  87 CALM      30.01S
GRAND MARAIS     N/A     54  48  80 NW3       29.99S
G MARAIS ARPRT CLEAR     48  43  81 W3        30.02S
$$
MNZ029>031-032-039>041-046>048-054>057-064-270600-
   West Central Minnesota

CITY           SKY/WX    TMP DP  RH WIND       PRES   REMARKS
FERGUS FALLS   CLEAR     57  46  67 S3        30.07S
WHEATON        CLEAR     59  41  51 S6        30.11F
MORRIS         CLEAR     55  43  62 S5        30.10F
ALEXANDRIA     CLEAR     53  45  74 SW7       30.12S
ELBOW LAKE     FAIR      52  45  77 S7        30.11S
WADENA         CLEAR     50  45  81 CALM      30.09S
GLENWOOD       CLEAR     54  46  76 SW5       30.12S
APPLETON       CLEAR     52  46  82 CALM      30.11S
BENSON         CLEAR     52  45  76 CALM      30.13S
ORTONVILLE     CLEAR     57  41  54 S3        30.11S
MADISON        CLEAR     57  48  72 S5        30.12S
WILLMAR        FAIR      55  46  71 CALM      30.13F
$$
MNZ033>034-036-042>043-049>051-058-059-270600-
   Central Minnesota

CITY           SKY/WX    TMP DP  RH WIND       PRES   REMARKS
ST CLOUD       CLEAR     50  47  89 CALM      30.10S
SAUK CENTRE    FAIR      50  43  76 CALM      30.11S
PAYNESVILLE    CLEAR     49  44  80 W3        30.12S
AITKIN         CLEAR     45  43  93 CALM      30.07S
PINE RIVER     CLEAR     46  45  93 CALM      30.11S
BRAINERD       CLEAR     48  44  86 S3        30.09S
STAPLES        CLEAR     52  43  71 CALM      30.09F
LONG PRAIRIE   FAIR      50  45  81 S3        30.11S
LITTLE FALLS   CLEAR     46  43  87 CALM      30.10S
LITCHFIELD     CLEAR     57  46  67 CALM      30.12F
BUFFALO        CLEAR     54  47  77 CALM      30.12S
MAPLE LAKE     CLEAR     51  48  90 CALM      30.12S
HUTCHINSON     CLEAR     53  47  82 CALM      30.14R
$$
MNZ037-044-045-052-053-270600-
   East Central Minnesota

CITY           SKY/WX    TMP DP  RH WIND       PRES   REMARKS
PRINCETON      CLEAR     48  46  93 CALM      30.10S
MORA           CLEAR     50  45  81 CALM      30.10S
CAMBRIDGE      CLEAR     54  45  71 CALM      30.08S
RUSH CITY      MOCLDY    50  45  81 CALM      30.09S
MOOSE LAKE     PTCLDY    46  43  87 CALM      30.05S
HINCKLEY       FAIR      48  46  93 CALM      30.08S
CLOQUET        CLEAR     54  43  66 W7        30.06S
MCGREGOR       CLEAR     52  43  71 CALM      30.07S
$$
MNZ071>073-080-081-089-090-097-098-270600-
   Southwest Minnesota

CITY           SKY/WX    TMP DP  RH WIND       PRES   REMARKS
MONTEVIDEO     CLEAR     55  37  50 CALM      30.12F
GRANITE FALLS  CLEAR     56  46  67 CALM      30.14S
CANBY          CLEAR     51  46  83 CALM      30.14S
MARSHALL       CLEAR     53  46  77 S5        30.14S
REDWOOD FALLS  CLEAR     56  43  61 CALM      30.13S
OLIVIA         CLEAR     54  43  66 SW3       30.12S
PIPESTONE      CLEAR     57  41  54 CALM      30.15S
WINDOM         CLEAR     52  43  71 CALM      30.15S
WORTHINGTON    CLEAR     53  46  77 CALM      30.16S
JACKSON        CLEAR     54  43  66 CALM      30.15F
TRACY          CLEAR     56  44  64 SW3       30.14S
SLAYTON        CLEAR     53  44  71 CALM      30.15F
$$
MNZ065>067-074>077-082>085-091>093-270600-
   South Central Minnesota

CITY           SKY/WX    TMP DP  RH WIND       PRES   REMARKS
MANKATO        PTCLDY    57  44  62 SW5       30.13S
NEW ULM        PTCLDY    54  43  66 CALM      30.13S
ST JAMES       CLEAR     54  45  71 CALM      30.15S
FAIRMONT       CLEAR     55  47  74 W3        30.15S
GLENCOE        CLEAR     55  50  86 CALM      30.12S
FARIBAULT      PTCLDY    52  48  87 CALM      30.13S
OWATONNA       CLEAR     54  46  76 CALM      30.13S
WASECA         CLEAR     52  46  82 CALM      30.14S
ALBERT LEA     CLEAR     54  46  76 CALM      30.14S
$$
MNZ078>079-086>088-094>096-270600-
   Southeast Minnesota

CITY           SKY/WX    TMP DP  RH WIND       PRES   REMARKS
ROCHESTER      CLEAR     53  46  77 SW6       30.14S
RED WING       CLEAR     50  46  87 CALM      30.10S
STANTON        CLEAR     53  49  86 S3        30.11S
DODGE CENTER   CLEAR     52  46  82 CALM      30.13S
WINONA         CLEAR     54  50  87 CALM      30.12S
AUSTIN         CLEAR     54  45  71 CALM      30.14S
PRESTON        CLEAR     55  45  68 CALM      30.14S
$$
ABBREVIATIONS USED IN REMARKS
   TC - TEMPERATURES IN CELSIUS
  WCI - WIND CHILL INDEX
   HX - HEAT INDEX
  VSB - VISIBILITY
$$



USA.gov is the U.S. government's official web portal to all federal, state and local government web resources and services.